Riverton, WY

8:11 PM MDT on September 29, 2016 (GMT -0600)
Riverton Regional

Weather History for KRIW - March, 2012

Change the Weather History Date:

Wednesday, March 14, 2012

  Actual Average Record
Temperature  
Mean Temperature 48 °F 35 °F  
Max Temperature 63 °F 47 °F 67 °F (2013)
Min Temperature 33 °F 23 °F 9 °F (1997)
Degree Days  
Heating Degree Days 17 30  
Month to date heating degree days 374 456  
Since 1 July heating degree days 5760 6310  
Cooling Degree Days 0 0  
Month to date cooling degree days 0 0  
Year to date cooling degree days 0 0  
Moisture  
Dew Point 21 °F    
Average Humidity 34    
Maximum Humidity 48    
Minimum Humidity 19    
Precipitation  
Precipitation 0.00 in 0.01 in 0.12 in (2002)
Month to date precipitation 0.03 0.19  
Year to date precipitation 0.50 0.70  
Snow  
Snow 0.00 in - - ()
Month to date snowfall 1.3  
Since 1 July snowfall 26.4  
Snow Depth 0.00 in    
Sea Level Pressure  
Sea Level Pressure 29.77 in    
Wind  
Wind Speed 11 mph (WSW)    
Max Wind Speed 23 mph    
Max Gust Speed 28 mph    
Visibility 10 miles    
Events      
T = Trace of Precipitation, MM = Missing Value Source: NWS Daily Summary

Daily Weather History Graph

Daily Weather History Graph

Search for Another Location

Airport or City:

Trip Planner

Search our weather history database for the weather conditions in past years. The results will help you decide how hot, cold, wet, or windy it might be!

Date:

Astronomy

Mar. 14, 2012 Rise Set
Actual Time 7:26 AM MDT 7:19 PM MDT
Civil Twilight 6:58 AM MDT 7:48 PM MDT
Nautical Twilight 6:25 AM MDT 8:21 PM MDT
Astronomical Twilight 5:51 AM MDT 8:54 PM MDT
Moon 2:08 AM MDT (3/14) 11:30 AM MDT (3/14)
Length of Visible Light 12h 49m
Length of Day
11h 53m
Waning Gibbous, 54% of the Moon is Illuminated
Mar 14
Waning Gibbous
Mar 14
Last Quarter
Mar 22
New
Mar 30
First Quarter
Apr 6
Full

Hourly Weather History & Observations

Time (MDT) Temp. Windchill Dew Point Humidity Pressure Visibility Wind Dir Wind Speed Gust Speed Precip Events Conditions
12:53 AM 50.0 °F - 18.0 °F 28% 29.66 in 10.0 mi SW 11.5 mph - N/A   Clear
1:53 AM 51.1 °F - 19.9 °F 29% 29.65 in 10.0 mi West 18.4 mph - N/A   Clear
2:53 AM 53.1 °F - 19.0 °F 26% 29.65 in 10.0 mi SW 10.4 mph 24.2 mph N/A   Clear
3:53 AM 42.1 °F 37.1 °F 19.0 °F 40% 29.70 in 10.0 mi NW 8.1 mph - N/A   Clear
4:53 AM 42.1 °F 37.7 °F 19.0 °F 40% 29.72 in 10.0 mi NE 6.9 mph - N/A   Clear
5:53 AM 41.0 °F 39.0 °F 19.0 °F 41% 29.73 in 10.0 mi NE 3.5 mph - N/A   Partly Cloudy
6:53 AM 44.1 °F 40.8 °F 19.9 °F 38% 29.75 in 10.0 mi ESE 5.8 mph - N/A   Clear
7:53 AM 39.0 °F - 21.0 °F 49% 29.79 in 10.0 mi Calm Calm - N/A   Clear
8:53 AM 46.0 °F 43.9 °F 24.1 °F 42% 29.78 in 10.0 mi SSE 4.6 mph - N/A   Clear
9:53 AM 50.0 °F - 25.0 °F 38% 29.75 in 10.0 mi SW 8.1 mph - N/A   Clear
10:53 AM 55.9 °F - 25.0 °F 30% 29.75 in 10.0 mi South 11.5 mph - N/A   Partly Cloudy
11:53 AM 60.1 °F - 21.0 °F 22% 29.72 in 10.0 mi SSW 11.5 mph 19.6 mph N/A   Clear
12:53 PM 61.0 °F - 19.9 °F 21% 29.71 in 10.0 mi South 11.5 mph 18.4 mph N/A   Clear
1:53 PM 62.1 °F - 19.9 °F 20% 29.68 in 10.0 mi SSW 13.8 mph - N/A   Clear
2:19 PM 60.8 °F - 17.6 °F 19% 29.81 in 10.0 mi WSW 11.5 mph - N/A   Clear
2:53 PM 62.1 °F - 19.0 °F 19% 29.67 in 10.0 mi WSW 12.7 mph - N/A   Clear
3:53 PM 60.1 °F - 21.0 °F 22% 29.73 in 10.0 mi West 23.0 mph 27.6 mph N/A   Scattered Clouds
4:53 PM 57.9 °F - 21.0 °F 24% 29.77 in 10.0 mi WNW 18.4 mph 26.5 mph N/A   Clear
5:53 PM 57.9 °F - 21.9 °F 25% 29.80 in 10.0 mi WNW 16.1 mph - N/A   Clear
6:53 PM 55.9 °F - 19.9 °F 25% 29.82 in 10.0 mi WNW 15.0 mph - N/A   Partly Cloudy
7:53 PM 50.0 °F - 21.0 °F 32% 29.90 in 10.0 mi WNW 12.7 mph - N/A   Clear
8:53 PM 46.9 °F - 21.9 °F 37% 29.90 in 10.0 mi WNW 12.7 mph - N/A   Clear
9:53 PM 41.0 °F 35.8 °F 21.9 °F 47% 29.94 in 10.0 mi West 8.1 mph - N/A   Clear
10:53 PM 44.1 °F - 23.0 °F 43% 29.93 in 10.0 mi Calm Calm - N/A   Clear
11:53 PM 44.1 °F 40.1 °F 23.0 °F 43% 29.92 in 10.0 mi SSW 6.9 mph - N/A   Clear